KD5MWL-2 Weather Reports


time (UTC)temp
F
wind
direction
speed
knots
gust
knots
rain 1hr
in
rain 24hr
in
rain mn
in
humidity
%
barometer
mb
20260510043503 68 0 0.0 0.0 0.00 0.33 0.33 82 1012.9
20260510043003 68 0 0.0 0.0 0.00 0.33 0.33 82 1012.8
20260510042503 69 0 0.0 0.0 0.00 0.33 0.33 82 1012.9
20260510042003 69 0 0.0 0.0 0.00 0.33 0.33 82 1012.9
20260510041503 69 0 0.0 0.0 0.00 0.33 0.33 82 1012.9
20260510041003 69 0 0.0 0.0 0.00 0.33 0.33 81 1012.9
20260510040524 69 0 0.0 0.0 0.00 0.33 0.33 81 1012.9
20260510040025 70 0 0.0 0.0 0.00 0.33 0.33 82 1012.8
20260510035503 70 0 0.0 0.0 0.00 0.33 0.33 81 1012.8
20260510035024 70 0 0.0 0.0 0.00 0.33 0.33 81 1012.9
20260510034503 70 0 0.0 0.0 0.00 0.33 0.33 81 1013.0
20260510034003 70 0 0.0 0.0 0.00 0.33 0.33 81 1013.1
20260510033503 70 0 0.0 0.0 0.00 0.33 0.33 81 1013.2
20260510033003 71 0 0.0 0.0 0.00 0.33 0.33 81 1013.3
20260510032503 71 0 0.0 0.0 0.00 0.33 0.33 81 1013.3
20260510032003 71 0 0.0 0.0 0.00 0.33 0.33 81 1013.3
20260510031503 71 0 0.0 0.0 0.00 0.33 0.33 81 1013.2
20260510031003 71 0 0.0 0.0 0.00 0.33 0.33 81 1012.9
20260510030503 72 0 0.0 0.0 0.00 0.33 0.33 81 1013.0
20260510030003 72 0 0.0 0.0 0.00 0.33 0.33 81 1013.0
20260510025503 72 0 0.0 0.0 0.00 0.33 0.33 81 1012.9
20260510025003 72 179 0.0 2.6 0.00 0.33 0.33 81 1012.9
20260510024525 72 202 0.9 2.6 0.00 0.33 0.33 81 1012.9
20260510024003 72 206 0.9 6.1 0.00 0.33 0.33 81 1012.9
20260510023503 72 197 1.7 6.1 0.00 0.33 0.33 81 1012.9
20260510023003 72 191 1.7 3.5 0.00 0.33 0.33 81 1012.9
20260510022503 72 188 1.7 4.3 0.00 0.33 0.33 81 1012.8
20260510022003 72 188 1.7 4.3 0.00 0.33 0.33 81 1012.7
20260510021503 72 192 0.9 3.5 0.00 0.33 0.33 81 1012.7
20260510021003 72 195 1.7 3.5 0.00 0.33 0.33 81 1012.8
20260510020503 72 189 1.7 5.2 0.00 0.33 0.33 80 1012.7
20260510020004 72 192 1.7 5.2 0.00 0.33 0.33 80 1012.5
20260510015504 72 192 1.7 5.2 0.00 0.33 0.33 80 1012.4
20260510015003 72 190 0.9 3.5 0.00 0.33 0.33 80 1012.4
20260510014503 72 211 0.9 5.2 0.00 0.33 0.33 79 1012.3
20260510014024 73 205 0.9 5.2 0.00 0.33 0.33 79 1012.3
20260510013503 73 197 0.9 2.6 0.00 0.33 0.33 79 1012.3
20260510013003 73 208 0.9 3.5 0.00 0.33 0.33 79 1012.2
20260510012504 73 212 0.9 3.5 0.00 0.33 0.33 79 1012.1
20260510012024 73 213 0.9 2.6 0.00 0.33 0.33 78 1012.1
20260510011503 74 199 0.9 2.6 0.00 0.33 0.33 78 1012.0
20260510011003 74 192 0.9 2.6 0.00 0.33 0.33 78 1011.9
20260510010504 74 230 0.0 1.7 0.00 0.33 0.33 78 1011.8
20260510010003 74 231 0.0 2.6 0.00 0.33 0.33 78 1011.8
20260510005503 74 229 0.9 2.6 0.00 0.33 0.33 78 1011.8
20260510005003 74 221 0.9 2.6 0.00 0.33 0.33 77 1011.8
20260510004503 74 212 0.9 2.6 0.00 0.33 0.33 77 1011.6
20260510004024 75 199 0.9 2.6 0.00 0.33 0.33 77 1011.4
20260510003504 75 186 0.9 2.6 0.00 0.33 0.33 77 1011.4
20260510003004 75 176 0.9 2.6 0.00 0.33 0.33 76 1011.5
20260510002503 75 171 0.0 1.7 0.00 0.33 0.33 76 1011.3
20260510002003 75 180 0.9 2.6 0.00 0.33 0.33 76 1011.3
20260510001503 75 188 1.7 6.1 0.00 0.33 0.33 76 1011.3
20260510001003 76 203 2.6 6.1 0.00 0.33 0.33 76 1011.3
20260510000503 76 208 1.7 6.1 0.00 0.33 0.33 75 1011.3
20260510000024 76 212 1.7 5.2 0.00 0.33 0.33 75 1011.3
20260509235503 76 204 1.7 4.3 0.00 0.33 0.33 75 1011.2
20260509235003 76 183 1.7 5.2 0.00 0.33 0.33 75 1011.1
20260509234503 76 197 2.6 7.0 0.00 0.33 0.33 74 1010.9
20260509234003 77 196 3.5 10.4 0.00 0.33 0.33 74 1010.9
20260509233524 77 203 3.5 11.3 0.00 0.33 0.33 74 1011.0
20260509233024 77 206 3.5 11.3 0.00 0.33 0.33 73 1010.9
20260509232503 78 199 3.5 8.7 0.00 0.33 0.33 73 1010.9
20260509232003 78 203 3.5 9.6 0.00 0.33 0.33 73 1010.9
20260509231503 78 206 3.5 10.4 0.00 0.33 0.33 73 1010.8
20260509231003 78 208 3.5 10.4 0.00 0.33 0.33 73 1010.8
20260509230503 78 200 3.5 9.6 0.00 0.33 0.33 73 1010.8
20260509230003 78 194 4.3 9.6 0.00 0.33 0.33 73 1010.7
20260509225524 78 202 3.5 9.6 0.00 0.33 0.33 73 1010.8
20260509225003 78 200 2.6 7.8 0.00 0.33 0.33 73 1010.8
20260509224503 78 197 2.6 8.7 0.00 0.33 0.33 73 1010.8
20260509224003 79 206 2.6 8.7 0.00 0.33 0.33 72 1010.8
20260509223503 79 198 2.6 9.6 0.00 0.33 0.33 72 1010.8
20260509223003 79 196 3.5 9.6 0.00 0.33 0.33 71 1010.8
20260509222503 79 192 3.5 8.7 0.00 0.33 0.33 71 1010.8
20260509222003 79 179 2.6 8.7 0.00 0.33 0.33 72 1010.8
20260509221524 79 175 1.7 6.1 0.00 0.33 0.33 72 1010.6
20260509221024 79 180 2.6 7.0 0.00 0.33 0.33 72 1010.6
20260509220503 79 183 2.6 7.0 0.00 0.33 0.33 72 1010.4
20260509220004 79 159 1.7 7.0 0.00 0.33 0.33 73 1010.4
20260509215524 79 165 1.7 6.1 0.00 0.33 0.33 74 1010.4
20260509215003 79 167 2.6 8.7 0.00 0.33 0.33 73 1010.4
20260509214503 79 156 2.6 8.7 0.00 0.33 0.33 73 1010.5
20260509214003 78 155 3.5 10.4 0.00 0.33 0.33 74 1010.5
20260509213503 78 166 3.5 10.4 0.00 0.33 0.33 74 1010.5
20260509213003 78 180 3.5 8.7 0.00 0.33 0.33 75 1010.6
20260509212503 78 165 3.5 8.7 0.00 0.33 0.33 76 1010.7
20260509212003 78 139 3.5 8.7 0.00 0.33 0.33 76 1010.7
20260509211503 77 135 2.6 8.7 0.00 0.33 0.33 77 1010.8
20260509211003 77 140 1.7 6.1 0.00 0.33 0.33 77 1010.8
20260509210503 77 158 0.9 4.3 0.00 0.33 0.33 77 1010.8
20260509210024 77 158 0.9 4.3 0.00 0.33 0.33 76 1010.8
20260509205503 77 156 1.7 5.2 0.00 0.33 0.33 76 1010.9
20260509205024 77 166 1.7 5.2 0.00 0.33 0.33 76 1010.9
20260509204524 77 170 1.7 5.2 0.00 0.33 0.33 75 1011.0
20260509204003 77 176 2.6 7.0 0.00 0.33 0.33 75 1011.0
20260509203503 77 198 2.6 7.8 0.00 0.33 0.33 75 1011.1
20260509203003 77 204 3.5 8.7 0.00 0.33 0.33 76 1011.1
20260509202503 77 185 3.5 8.7 0.00 0.33 0.33 76 1011.0
20260509202003 77 145 1.7 5.2 0.00 0.33 0.33 77 1011.1
20260509201503 77 172 2.6 6.1 0.00 0.33 0.33 77 1011.2
20260509201003 77 196 1.7 6.1 0.00 0.33 0.33 77 1011.2
20260509200503 76 201 2.6 10.4 0.00 0.33 0.33 77 1011.3
20260509200003 76 197 2.6 10.4 0.00 0.33 0.33 77 1011.1
20260509195503 76 181 2.6 6.1 0.00 0.33 0.33 76 1011.0
20260509195003 76 172 2.6 7.8 0.00 0.33 0.33 76 1011.1
20260509194503 76 169 1.7 7.8 0.00 0.33 0.33 76 1011.3
20260509194003 76 161 1.7 5.2 0.00 0.33 0.33 76 1011.3
20260509193525 76 177 1.7 5.2 0.00 0.33 0.33 76 1011.3
20260509193003 76 194 1.7 5.2 0.00 0.33 0.33 76 1011.3
20260509192525 76 191 2.6 6.1 0.00 0.33 0.33 76 1011.3
20260509192003 76 199 2.6 6.1 0.00 0.33 0.33 77 1011.3
20260509191503 76 199 2.6 6.1 0.00 0.33 0.33 77 1011.3
20260509191003 76 200 2.6 5.2 0.00 0.33 0.33 77 1011.3
20260509190503 76 199 2.6 5.2 0.00 0.33 0.33 78 1011.3
20260509190025 76 169 2.6 5.2 0.00 0.33 0.33 79 1011.3
20260509185503 75 191 3.5 6.1 0.00 0.33 0.33 79 1011.4
20260509185003 75 226 3.5 7.8 0.00 0.33 0.33 79 1011.4
20260509184503 75 206 2.6 7.8 0.00 0.33 0.33 79 1011.5
20260509184003 75 152 2.6 6.1 0.00 0.33 0.33 79 1011.4
20260509183503 75 164 2.6 6.1 0.00 0.33 0.33 78 1011.5
20260509183003 75 178 2.6 7.8 0.00 0.33 0.33 78 1011.4
20260509182503 75 180 2.6 7.8 0.00 0.33 0.33 77 1011.4
20260509182003 75 180 2.6 6.1 0.00 0.33 0.33 76 1011.6
20260509181524 75 177 2.6 6.1 0.00 0.33 0.33 75 1011.7
20260509181003 76 177 2.6 5.2 0.00 0.33 0.33 75 1011.7
20260509180503 76 179 1.7 5.2 0.00 0.33 0.33 75 1011.8
20260509180003 76 166 2.6 9.6 0.00 0.33 0.33 75 1011.8
20260509175503 77 155 2.6 9.6 0.00 0.33 0.33 75 1011.8
20260509175003 77 131 2.6 7.8 0.00 0.33 0.33 75 1011.9
20260509174503 77 133 2.6 4.3 0.00 0.33 0.33 75 1011.9
20260509174003 77 139 1.7 4.3 0.00 0.33 0.33 75 1012.0
20260509173503 77 117 1.7 4.3 0.00 0.33 0.33 75 1012.1
20260509173003 77 116 1.7 4.3 0.00 0.33 0.33 75 1012.1
20260509172503 77 124 1.7 4.3 0.00 0.33 0.33 75 1012.0
20260509172024 77 124 1.7 3.5 0.00 0.33 0.33 75 1012.2
20260509171503 77 133 1.7 3.5 0.00 0.33 0.33 75 1012.1
20260509171003 77 132 1.7 3.5 0.00 0.33 0.33 76 1012.2
20260509170503 77 108 1.7 3.5 0.00 0.33 0.33 76 1012.1
20260509170003 77 84 1.7 4.3 0.00 0.33 0.33 76 1012.2
20260509165503 77 78 1.7 5.2 0.00 0.33 0.33 76 1012.3
20260509165003 76 80 1.7 5.2 0.00 0.33 0.33 77 1012.3
20260509164524 76 74 1.7 5.2 0.00 0.33 0.33 78 1012.3
20260509164003 76 71 1.7 5.2 0.00 0.33 0.33 79 1012.3
20260509163503 76 111 0.9 3.5 0.00 0.33 0.33 80 1012.2
20260509163003 76 122 0.9 3.5 0.00 0.33 0.33 80 1012.1
20260509162503 75 111 0.9 3.5 0.00 0.33 0.33 81 1012.3
20260509162003 75 101 0.9 3.5 0.00 0.33 0.33 80 1012.3
20260509161503 75 99 0.9 3.5 0.00 0.33 0.33 81 1012.2
20260509161003 75 0 0.0 0.0 0.00 0.33 0.33 82 1012.1
20260509160503 75 348 0.0 1.7 0.00 0.33 0.33 82 1012.2
20260509160003 75 341 0.9 1.7 0.00 0.33 0.33 82 1012.2
20260509155524 74 344 0.9 2.6 0.00 0.33 0.33 82 1012.1
20260509155003 74 6 0.9 2.6 0.00 0.33 0.33 82 1012.0
20260509154524 74 46 0.9 2.6 0.00 0.33 0.33 84 1011.9
20260509154003 74 35 0.9 2.6 0.00 0.33 0.33 84 1011.9
20260509153503 74 60 0.9 2.6 0.00 0.33 0.33 85 1011.9
20260509153003 74 67 0.9 2.6 0.00 0.33 0.33 86 1011.8
20260509152503 74 61 0.9 2.6 0.00 0.33 0.33 87 1011.8
20260509152003 73 52 0.9 2.6 0.00 0.33 0.33 87 1011.8
20260509151503 73 304 0.0 2.6 0.00 0.33 0.33 87 1011.8
20260509151003 73 0 0.0 0.0 0.00 0.33 0.33 87 1011.8
20260509150503 73 185 0.0 1.7 0.00 0.33 0.33 88 1011.8
20260509150003 72 185 0.0 1.7 0.00 0.33 0.33 88 1011.8
20260509145503 72 184 0.0 1.7 0.00 0.33 0.33 88 1011.9
20260509145003 72 183 0.0 2.6 0.00 0.33 0.33 89 1012.0
20260509144503 72 180 0.9 2.6 0.00 0.33 0.33 89 1011.9
20260509144003 72 178 0.0 1.7 0.00 0.33 0.33 89 1011.9
20260509143503 71 174 0.0 0.9 0.00 0.33 0.33 89 1011.8
20260509143003 71 0 0.0 0.0 0.00 0.33 0.33 89 1011.8
20260509142504 71 0 0.0 0.0 0.00 0.33 0.33 89 1011.8
20260509142003 70 280 0.0 1.7 0.00 0.33 0.33 89 1011.5
20260509141503 70 235 0.9 4.3 0.00 0.33 0.33 89 1011.6
20260509141003 69 225 0.9 4.3 0.00 0.33 0.33 89 1011.7
20260509140524 69 246 0.0 2.6 0.00 0.33 0.33 89 1011.6
20260509140024 69 291 0.9 2.6 0.00 0.33 0.33 89 1011.4
20260509135503 68 262 0.9 2.6 0.00 0.33 0.33 89 1011.3
20260509135003 68 240 0.9 2.6 0.00 0.33 0.33 89 1011.5
20260509134503 68 232 0.9 4.3 0.00 0.33 0.33 89 1011.6
20260509134003 68 222 1.7 4.3 0.00 0.33 0.33 89 1011.7
20260509133503 68 217 1.7 4.3 0.00 0.33 0.33 89 1011.7
20260509133003 67 242 1.7 3.5 0.00 0.33 0.33 89 1011.7
20260509132503 67 246 1.7 3.5 0.00 0.33 0.33 89 1011.8
20260509132003 67 230 0.9 2.6 0.00 0.33 0.33 89 1011.9
20260509131503 67 206 0.9 4.3 0.00 0.33 0.33 89 1011.8
20260509131003 67 213 1.7 5.2 0.00 0.33 0.33 88 1011.8
20260509130503 66 215 2.6 5.2 0.00 0.33 0.33 88 1011.5
20260509130003 66 211 1.7 3.5 0.00 0.33 0.33 88 1011.5
20260509125503 66 215 0.9 3.5 0.00 0.33 0.33 88 1011.3
20260509125003 66 243 0.0 2.6 0.00 0.33 0.33 88 1011.3
20260509124503 66 303 0.9 2.6 0.00 0.33 0.33 88 1011.3
20260509124003 66 295 0.9 2.6 0.00 0.33 0.33 88 1011.3
20260509123503 66 212 0.9 3.5 0.00 0.33 0.33 88 1011.4
20260509123025 66 227 0.9 3.5 0.00 0.33 0.33 88 1011.5
20260509122503 66 283 0.0 1.7 0.00 0.33 0.33 88 1011.4
20260509122003 66 293 0.9 2.6 0.00 0.33 0.33 88 1011.3
20260509121503 66 297 0.9 3.5 0.00 0.33 0.33 88 1011.3
20260509121003 66 327 1.7 3.5 0.00 0.33 0.33 88 1011.3
20260509120503 66 336 1.7 3.5 0.00 0.33 0.33 88 1011.3
20260509120024 66 328 0.9 3.5 0.00 0.33 0.33 88 1011.3
20260509115503 66 263 0.9 2.6 0.00 0.33 0.33 88 1011.4
20260509115003 66 272 0.9 3.5 0.00 0.33 0.33 88 1011.5
20260509114503 66 289 1.7 4.3 0.00 0.33 0.33 88 1011.3
20260509114006 66 291 1.7 4.3 0.00 0.33 0.33 88 1011.1
20260509113503 67 280 1.7 4.3 0.00 0.33 0.33 88 1010.8
20260509113003 67 278 2.6 6.1 0.00 0.33 0.33 88 1010.8
20260509112503 67 282 2.6 6.1 0.00 0.33 0.33 88 1010.7
20260509112003 67 278 1.7 6.1 0.00 0.33 0.33 88 1010.8
20260509111503 67 311 1.7 5.2 0.00 0.33 0.33 88 1010.8
20260509111003 67 336 1.7 5.2 0.00 0.33 0.33 88 1010.5
20260509110524 67 340 1.7 4.3 0.00 0.33 0.33 88 1010.3
20260509110024 67 299 2.6 6.1 0.00 0.33 0.33 88 1010.3
20260509105503 67 274 2.6 8.7 0.00 0.33 0.33 88 1010.8
20260509105003 67 264 2.6 8.7 0.00 0.33 0.33 88 1010.9
20260509104503 67 266 2.6 7.8 0.01 0.33 0.33 88 1011.1
20260509104003 67 274 1.7 7.8 0.01 0.33 0.33 88 1011.3
20260509103524 67 274 0.9 4.3 0.02 0.33 0.33 88 1011.3
20260509103024 67 280 1.7 4.3 0.02 0.33 0.33 88 1011.3
20260509102503 67 282 2.6 5.2 0.03 0.33 0.33 88 1011.3
20260509102003 67 271 2.6 6.1 0.04 0.33 0.33 88 1011.3
20260509101524 67 269 2.6 6.1 0.05 0.33 0.33 88 1010.8
20260509101003 67 292 3.5 10.4 0.05 0.33 0.33 88 1010.8
20260509100503 67 314 4.3 10.4 0.06 0.33 0.33 87 1010.8
20260509100004 67 7 4.3 8.7 0.07 0.33 0.33 87 1010.4
20260509095503 67 103 3.5 8.7 0.08 0.33 0.33 87 1008.9
20260509095003 67 127 3.5 10.4 0.08 0.33 0.33 87 1008.4
20260509094524 67 144 4.3 12.2 0.08 0.32 0.33 87 1008.4
20260509094003 67 136 5.2 12.2 0.08 0.32 0.32 87 1008.4
20260509093503 67 126 4.3 11.3 0.08 0.31 0.31 87 1008.4
20260509093003 67 125 4.3 8.7 0.08 0.31 0.31 87 1008.8
20260509092503 67 127 3.5 8.7 0.07 0.30 0.30 87 1008.7
20260509092003 67 129 2.6 5.2 0.07 0.29 0.29 87 1009.3
20260509091524 67 130 1.7 5.2 0.06 0.28 0.29 87 1009.7
20260509091024 67 150 0.9 4.3 0.06 0.28 0.28 87 1009.2
20260509090524 67 165 0.9 3.5 0.05 0.27 0.27 87 1009.8
20260509090003 67 167 0.9 3.5 0.04 0.26 0.26 86 1010.0
20260509085503 67 344 0.0 1.7 0.03 0.25 0.25 86 1010.2
20260509085003 67 360 0.0 1.7 0.03 0.25 0.25 86 1010.3
20260509084503 67 360 0.0 0.9 0.02 0.24 0.24 86 1010.3
20260509084003 67 13 0.0 1.7 0.02 0.24 0.24 86 1010.6
20260509083503 67 30 0.0 1.7 0.01 0.23 0.23 86 1010.8
20260509083003 67 45 0.0 1.7 0.01 0.23 0.23 86 1010.7
20260509082524 68 41 0.9 3.5 0.03 0.23 0.23 86 1010.3
20260509082003 68 34 0.9 3.5 0.21 0.22 0.22 86 1009.8
20260509081503 68 1 0.9 2.6 0.22 0.22 0.22 86 1009.9
20260509081003 68 357 1.7 3.5 0.22 0.22 0.22 86 1010.6
20260509080525 68 348 1.7 3.5 0.22 0.22 0.22 86 1010.5
20260509080003 68 307 0.9 3.5 0.22 0.22 0.22 85 1010.5
20260509075503 68 252 0.0 3.5 0.22 0.22 0.22 85 1010.7
20260509075003 68 212 0.9 2.6 0.22 0.22 0.22 85 1010.2
20260509074503 68 275 0.9 2.6 0.22 0.22 0.22 85 1009.7
20260509074003 68 322 0.9 2.6 0.22 0.22 0.22 85 1010.3
20260509073524 68 304 0.9 3.5 0.22 0.22 0.22 85 1010.1
20260509073003 68 116 1.7 7.8 0.22 0.22 0.22 85 1010.3
20260509072503 68 106 2.6 7.8 0.20 0.20 0.20 85 1009.8
20260509072003 68 343 1.7 4.3 0.01 0.01 0.01 85 1011.1
20260509071503 68 350 1.7 4.3 0.00 0.00 0.00 85 1011.3
20260509071003 68 360 0.9 2.6 0.00 0.00 0.00 85 1011.2
20260509070503 68 360 0.0 0.9 0.00 0.00 0.00 84 1011.1
20260509070003 68 0 0.0 0.0 0.00 0.00 0.00 84 1011.3
20260509065503 68 360 0.0 0.9 0.00 0.00 0.00 84 1011.6
20260509065003 68 360 0.0 0.9 0.00 0.00 0.00 84 1011.5
20260509064503 68 360 0.0 2.6 0.00 0.00 0.00 84 1011.7
20260509064024 68 356 0.9 2.6 0.00 0.00 0.00 84 1011.7
20260509063524 68 340 0.9 3.5 0.00 0.00 0.00 84 1011.8
20260509063024 68 312 1.7 3.5 0.00 0.00 0.00 84 1011.9
20260509062504 68 278 0.9 2.6 0.00 0.00 0.00 84 1011.8
20260509062003 68 227 0.0 1.7 0.00 0.00 0.00 84 1011.8
20260509061504 68 227 0.0 0.9 0.00 0.00 0.00 84 1011.7
20260509061025 68 227 0.0 0.9 0.00 0.00 0.00 84 1011.8
20260509060503 68 0 0.0 0.0 0.00 0.00 0.00 84 1011.8
20260509060004 68 227 0.0 0.9 0.00 0.00 0.00 84 1011.8
20260509055503 68 227 0.0 1.7 0.00 0.00 0.00 83 1011.8
20260509055003 68 174 0.0 2.6 0.00 0.00 0.00 83 1011.5
20260509054503 68 190 0.9 2.6 0.00 0.00 0.00 83 1011.4
20260509054003 68 210 1.7 5.2 0.00 0.00 0.00 83 1011.3
20260509053503 68 211 0.9 5.2 0.00 0.00 0.00 83 1011.5
20260509053003 68 198 0.9 3.5 0.00 0.00 0.00 83 1011.3
20260509052503 68 190 1.7 5.2 0.00 0.00 0.00 83 1011.4
20260509052024 68 190 0.9 5.2 0.00 0.00 0.00 83 1011.4
20260509051503 68 184 0.0 1.7 0.00 0.00 0.00 83 1011.6
20260509051003 68 198 0.9 5.2 0.00 0.00 0.00 83 1011.6
20260509050503 68 195 1.7 5.2 0.00 0.00 0.00 83 1011.6
20260509050003 68 191 0.9 3.5 0.00 0.00 0.00 82 1011.8
20260509045524 68 196 0.9 3.5 0.00 0.00 0.00 82 1011.8
20260509045003 68 196 1.7 4.3 0.00 0.00 0.00 82 1011.9
20260509044504 68 209 1.7 6.1 0.00 0.00 0.00 82 1011.9
20260509044003 68 210 2.6 6.1 0.00 0.00 0.00 82 1011.9